Location: Stanford
(52.2833°N, 2.4333°W)
Time: 19:31:56
(UTC+00:00)

Meteor 1-11 - Pass Details

Date: 22 January 2021
Orbit: 840 x 887 km, 81.2° (Epoch: 27 February)

Event Time Altitude Azimuth Distance (km) Brightness Sun altitude
Rises 19:33:06 0° 188° (S) 3,448 7.5 -26.2°
Reaches altitude 10° 19:35:32 10° 188° (S) 2,508 6.7 -26.5°
Maximum altitude 19:41:14 85° 102° (ESE) 871 4.1 -27.4°
Enters shadow 19:41:20 84° 75° (ENE) 872 4.1 -27.4°
